Time,B instrument,Bx,By,Bz,sigma B,Ion instrument,Status,Tp_par,Tp_perp,carrot,r_sun,clat,clong,earth_he_angle,n_p,vp_x,vp_y,vp_z,vth_p_par,vth_p_perp
1980-04-04 00:00:09,1,-1.48571,0.814286,-0.128571,0.412558,1,1,57327.0,39277.5,1693,0.85327619,-3.9167747,61.304932,274.37134,3.42347,367.756,-5.14865,3.3667,30.7636,25.4642
1980-04-04 00:01:13,1,-1.42857,0.7,0.0571429,0.503052,1,1,46785.0,58886.1,1693,0.85327148,-3.9168425,61.296875,274.37109,3.82651,371.316,-3.93947,6.38639,27.7914,31.1791
1980-04-04 00:02:34,1,-1.05714,1.01429,0.0,0.202031,1,1,82128.7,54855.5,1693,0.85326684,-3.9169111,61.28125,274.37109,4.17579,366.201,-5.82187,8.30288,36.8218,30.0932
1980-04-04 00:03:55,1,-0.871429,1.14286,0.0,0.259513,1,1,46601.5,51014.9,1693,0.85326219,-3.9169788,61.269531,274.37109,3.54018,370.042,-1.19379,7.68349,27.7369,29.0206
1980-04-04 00:05:16,1,-1.68571,1.1,0.714286,0.474664,1,1,54719.7,68388.8,1693,0.85325289,-3.9171162,61.257813,274.37109,3.77877,368.111,-3.96011,11.2145,30.0559,33.6009
1980-04-04 00:06:37,1,-1.82857,1.51429,0.614286,0.356857,1,1,24804.7,42218.2,1693,0.85324824,-3.9171839,61.246094,274.37109,3.16226,364.889,1.31114,7.47901,20.236,26.4002
1980-04-04 00:07:58,1,-1.68571,1.41429,1.41429,0.339267,1,1,37565.7,40066.3,1693,0.85324359,-3.9172525,61.234131,274.37085,2.84324,361.367,-0.872001,14.6781,24.9031,25.7186
1980-04-04 00:09:19,1,-1.32857,1.22857,1.2,0.247436,1,1,41936.4,45564.2,1693,0.85323423,-3.9173889,61.222412,274.37085,3.09794,371.142,3.09811,15.1376,26.312,27.4265
1980-04-04 00:10:40,1,-1.0,1.4875,1.1,0.470206,1,1,53256.9,66493.7,1693,0.85322958,-3.9174576,61.206787,274.37085,3.43375,365.763,1.86382,14.503,29.6514,33.132
1980-04-04 00:12:01,1,-1.97143,1.24286,0.414286,0.83666,1,1,36836.4,56554.5,1693,0.85322028,-3.917594,61.195068,274.37085,3.25349,366.822,1.85532,11.9941,24.6602,30.5556
1980-04-04 00:13:22,1,-1.8,1.62857,0.157143,0.318799,1,1,54794.2,35639.6,1693,0.85321563,-3.9176626,61.183105,274.37061,2.98987,367.8,-8.27122,2.73348,30.0763,24.2563
1980-04-04 00:14:43,1,-2.425,1.475,-0.1875,0.701672,1,1,68464.2,38909.7,1693,0.85321099,-3.9177303,61.171387,274.37061,3.2276,370.986,-10.4203,2.37156,33.6194,25.3447
1980-04-04 00:16:04,1,-2.1625,2.5,0.35,0.268968,1,1,60102.5,27433.1,1693,0.85320163,-3.9178667,61.159668,274.37061,3.16631,369.99,-5.74856,3.41856,31.4995,21.2811
1980-04-04 00:17:25,1,-2.22857,2.65714,0.728571,0.252336,1,1,42775.1,30922.5,1693,0.85319698,-3.9179354,61.147949,274.37061,3.04629,369.863,-3.32206,10.6265,26.5738,22.5941
1980-04-04 00:18:46,1,-2.2,2.6,0.671429,0.197949,1,1,74186.1,29153.3,1693,0.85319233,-3.918004,61.132324,274.37061,3.22072,372.445,-6.43442,7.22571,34.9961,21.9382
1980-04-04 00:20:07,1,-2.225,2.65,0.4,0.227761,1,1,43875.7,31992.3,1693,0.85318303,-3.9181404,61.120361,274.37036,3.15666,370.209,-2.64105,9.37436,26.9135,22.9816
1980-04-04 00:21:28,1,-2.175,2.775,0.475,0.261008,1,1,65207.8,31963.7,1693,0.85317838,-3.9182081,61.108643,274.37036,3.364,372.884,-2.49573,9.05774,32.8101,22.9713
1980-04-04 00:22:49,1,-2.12857,2.75714,0.871429,0.257935,1,1,47140.7,32137.5,1693,0.85317373,-3.9182768,61.096924,274.37036,3.11545,370.668,-1.54551,10.32,27.8969,23.0337
1980-04-04 00:24:10,1,-2.0125,2.675,1.1625,0.250624,1,1,72347.7,28865.0,1693,0.85316437,-3.9184132,61.085205,274.37036,2.9796,367.354,-6.85009,5.54795,34.5597,21.8295
1980-04-04 00:25:31,1,-1.95714,2.44286,0.985714,0.346999,1,1,38542.1,30578.5,1693,0.85315973,-3.9184818,61.073242,274.37012,3.35487,369.866,-0.186626,11.9425,25.2247,22.4681
1980-04-04 00:26:12,-1,nan,nan,nan,nan,1,4,nan,nan,1693,0.85315508,-3.9185505,61.06543,274.37012,nan,nan,nan,nan,nan,nan
1980-04-04 00:26:52,1,-1.37143,2.81429,0.8,0.142857,1,1,64386.7,37809.3,1693,0.85315508,-3.9185505,61.057617,274.37012,3.61289,373.145,-2.15358,7.98832,32.6029,24.9837
1980-04-04 00:28:13,1,-1.8,2.84286,1.25714,0.182946,1,1,42216.9,27030.5,1693,0.85314578,-3.9186869,61.045898,274.37012,3.08988,373.846,0.923347,14.0121,26.3998,21.1244
1980-04-04 00:29:34,1,-2.05714,2.75714,1.38571,0.321349,1,1,77091.1,35360.7,1693,0.85314113,-3.9187546,61.03418,274.37012,3.42413,373.007,-4.10499,11.0947,35.6747,24.1612
1980-04-04 00:30:55,1,-2.1375,2.65,1.2,0.228788,1,1,44854.1,38317.1,1693,0.85313642,-3.9188232,61.022461,274.37012,2.76669,371.202,-5.71776,16.8251,27.2119,25.1509
1980-04-04 00:32:16,-1,nan,nan,nan,nan,1,4,nan,nan,1693,0.85312712,-3.9189596,61.010498,274.36987,nan,nan,nan,nan,nan,nan
1980-04-04 00:33:36,1,-2.51429,2.04286,1.3,0.441704,1,1,44999.6,36644.2,1693,0.85312247,-3.9190283,60.998779,274.36987,2.89371,371.062,-9.33968,10.345,27.256,24.5958
1980-04-04 00:34:57,1,-1.9,2.71429,0.9,0.397954,1,1,54860.2,28829.2,1693,0.85311782,-3.9190969,60.983154,274.36987,3.3154,354.23,47.3249,8.72469,30.0945,21.816
1980-04-04 00:36:18,1,-3.01429,1.85714,1.55714,0.27848,1,1,43756.4,35774.4,1693,0.85310853,-3.9192333,60.971436,274.36987,3.18181,361.211,-6.83425,12.7229,26.8769,24.3021
1980-04-04 00:37:39,1,-3.2,1.87143,0.542857,0.259513,1,1,54103.5,27427.0,1693,0.85310388,-3.919301,60.959473,274.36963,3.30117,363.971,-13.9994,7.19776,29.8862,21.2788
1980-04-04 00:39:01,1,-2.71429,2.44286,0.728571,0.489898,1,1,47957.7,29480.1,1693,0.85309452,-3.9194384,60.947754,274.36963,3.13294,367.356,-3.97516,5.84777,28.1376,22.0609
1980-04-04 00:40:22,1,-2.7,2.38571,0.5,0.344046,1,1,56528.2,28599.9,1693,0.85308987,-3.9195061,60.936035,274.36963,3.15033,367.268,-11.8296,4.1651,30.5485,21.729
1980-04-04 00:41:43,1,-2.81429,2.32857,0.557143,0.377964,1,1,62929.8,32507.5,1693,0.85308522,-3.9195747,60.924316,274.36963,2.87122,363.358,-7.90309,3.96752,32.2319,23.1659
1980-04-04 00:43:04,1,-2.5,2.47143,0.785714,0.417964,1,1,87320.8,28392.2,1693,0.85307592,-3.9197111,60.908447,274.36938,3.07675,367.106,-8.83418,4.06488,37.9679,21.65
1980-04-04 00:44:24,1,-2.31429,2.88571,0.614286,0.268784,1,1,79347.0,36825.8,1693,0.85307127,-3.9197798,60.896729,274.36938,3.24862,368.674,-7.88985,6.796,36.1929,24.6566
1980-04-04 01:52:37,-1,nan,nan,nan,nan,1,3,nan,nan,1693,0.85275435,-3.924427,60.269287,274.36694,nan,365.062,-6.66502,11.8507,nan,nan
1980-04-04 02:14:13,-1,nan,nan,nan,nan,1,3,nan,nan,1693,0.85265172,-3.925931,60.072998,274.36597,nan,366.091,-17.6709,8.17836,nan,nan
1980-04-04 02:57:25,-1,nan,nan,nan,nan,1,3,nan,nan,1693,0.85245103,-3.9288702,59.673096,274.3645,nan,366.358,0.143949,6.0798,nan,nan
1980-04-04 03:19:01,-1,nan,nan,nan,nan,1,3,nan,nan,1693,0.85234827,-3.9303741,59.473145,274.36377,nan,357.077,-7.67843,6.83476,nan,nan
1980-04-04 03:40:37,-1,nan,nan,nan,nan,1,3,nan,nan,1693,0.85225016,-3.9318104,59.2771,274.36304,nan,353.581,-2.51465,6.95103,nan,nan
1980-04-04 04:02:13,-1,nan,nan,nan,nan,1,3,nan,nan,1693,0.8521474,-3.9333143,59.076904,274.36206,nan,352.044,3.95085,11.7688,nan,nan
1980-04-04 04:23:49,-1,nan,nan,nan,nan,1,3,nan,nan,1693,0.85204911,-3.9347496,58.876953,274.36133,nan,353.76,2.08409,7.59265,nan,nan
1980-04-04 04:45:25,-1,nan,nan,nan,nan,1,3,nan,nan,1693,0.85194623,-3.9362535,58.680908,274.3606,nan,353.716,-9.49219,11.3217,nan,nan
1980-04-04 05:07:01,-1,nan,nan,nan,nan,1,3,nan,nan,1693,0.8518433,-3.9377575,58.480957,274.35986,nan,351.059,-1.39647,11.1365,nan,nan
1980-04-04 05:28:37,-1,nan,nan,nan,nan,1,3,nan,nan,1693,0.85174495,-3.9391947,58.280762,274.35889,nan,349.999,-12.0763,12.348,nan,nan
1980-04-04 05:50:13,-1,nan,nan,nan,nan,1,3,nan,nan,1693,0.85164195,-3.9406996,58.084717,274.35815,nan,353.392,2.75538,6.57467,nan,nan
1980-04-04 06:11:49,-1,nan,nan,nan,nan,1,3,nan,nan,1693,0.85154355,-3.9421358,57.884766,274.35742,nan,343.12,1.73993,1.49799,nan,nan
1980-04-04 06:33:25,-1,nan,nan,nan,nan,1,3,nan,nan,1693,0.85144043,-3.9436398,57.684814,274.35669,nan,350.617,3.7771,5.73115,nan,nan
1980-04-04 06:55:01,-1,nan,nan,nan,nan,1,3,nan,nan,1693,0.85133731,-3.9451437,57.488525,274.35571,nan,341.77,3.90847,3.77011,nan,nan
1980-04-04 07:02:04,-1,nan,nan,nan,nan,1,4,nan,nan,1693,0.85130447,-3.9456224,57.421875,274.35547,nan,nan,nan,nan,nan,nan
1980-04-04 07:16:37,-1,nan,nan,nan,nan,1,3,nan,nan,1693,0.85123879,-3.9465809,57.288574,274.35498,nan,342.342,2.93848,0.94156,nan,nan
1980-04-04 07:23:40,-1,nan,nan,nan,nan,1,3,nan,nan,1693,0.8512336,-3.813765,57.135986,274.2688,nan,342.341,2.93942,0.941558,nan,nan
1980-04-04 07:38:13,1,0.4,3.8,0.6,0.0,1,1,61911.5,20074.8,1693,0.85113549,-3.9480867,57.088623,274.35425,3.31848,345.49,2.03533,-1.4626,31.9701,18.2047
1980-04-04 08:20:19,-1,nan,nan,nan,nan,1,3,nan,nan,1693,0.85096765,-3.8177235,56.614471,274.26682,nan,395.902,-16.6129,45.2944,nan,nan
1980-04-04 08:26:33,1,1.08333,3.2,0.533333,0.153659,1,1,18350.2,21389.4,1693,0.85091007,-3.9513721,56.645508,274.35254,3.60002,345.254,2.19192,-3.64135,17.4052,18.7913
1980-04-04 08:27:54,1,0.433333,3.43333,0.616667,0.214087,1,1,61981.9,24000.7,1693,0.85090536,-3.9514408,56.633789,274.35254,3.2833,347.943,-1.08414,-0.0111364,31.9882,19.9054
1980-04-04 08:29:15,1,0.614286,3.45714,0.6,0.202031,1,1,47564.5,18615.7,1693,0.850896,-3.9515772,56.618164,274.35254,2.87875,344.018,3.37735,-2.06691,28.022,17.5306
1980-04-04 08:31:05,1,1.83333,3.56667,1.25,0.200693,1,1,49406.1,24340.1,1693,0.85088658,-3.9517145,56.602295,274.35229,3.3925,346.998,2.59487,3.85005,28.5593,20.0456
1980-04-04 08:32:26,1,1.0,3.55,0.933333,0.267187,1,1,55912.9,26340.3,1693,0.85088187,-3.9517832,56.590576,274.35229,3.29114,346.214,-5.82569,1.50828,30.3818,20.853
1980-04-04 08:33:47,1,0.9,3.6,1.0,0.0,1,1,62293.5,24152.4,1693,0.85087723,-3.9518509,56.578857,274.35229,3.25157,344.891,3.83316,3.49196,32.0685,19.9682
1980-04-04 08:36:29,1,0.9,3.6,0.6,0.0,1,1,38231.4,23007.1,1693,0.8508631,-3.9520569,56.551514,274.35229,3.0308,344.061,6.07707,1.33901,25.1228,19.489
1980-04-04 08:40:30,1,0.0,3.6,0.6,0.173205,1,1,71631.3,25958.6,1693,0.85084432,-3.9523306,56.516113,274.35205,3.51975,345.095,2.59676,1.18737,34.3882,20.7014
1980-04-04 08:41:55,1,0.2,3.45,0.7625,0.432832,1,1,86735.7,74596.1,1693,0.85086614,-3.8192317,56.418396,274.26605,6.51256,388.424,-14.0171,22.5217,37.8405,35.0926
1980-04-04 08:48:45,1,-0.433333,3.53333,0.566667,0.270801,1,1,21550.4,23919.1,1693,0.85080671,-3.952878,56.44165,274.35181,3.64989,360.46,-17.8113,8.28749,18.8619,19.8715
1980-04-04 08:50:06,1,0.0571429,3.94286,1.3,0.336852,1,1,71070.0,24277.6,1693,0.85079736,-3.9530144,56.426025,274.35181,3.61333,346.888,4.29914,3.24442,34.2532,20.0199
1980-04-04 08:51:27,1,-0.0142857,3.78571,0.9,0.369777,1,1,46957.2,20526.5,1693,0.85079265,-3.953083,56.414307,274.35181,3.55064,349.361,5.77815,2.84839,27.8426,18.4084
1980-04-04 08:52:41,1,0.342857,3.88571,1.0,0.162882,1,1,86527.2,23620.5,1693,0.85078794,-3.9531517,56.402588,274.35181,3.48212,352.538,1.41004,5.38751,37.795,19.7471
1980-04-04 08:54:02,1,0.666667,3.88333,1.2,0.283333,1,1,71196.8,23080.9,1693,0.85077852,-3.9532881,56.390625,274.35156,3.58348,352.181,-0.413386,5.07334,34.2837,19.5202
1980-04-04 10:06:56,1,-0.3,3.0,-0.9,0.0,1,1,59609.2,34037.5,1693,0.85043985,-3.9582176,55.720215,274.34912,4.59008,356.993,-7.20316,-0.629998,31.37,23.7048
1980-04-04 10:10:59,-1,nan,nan,nan,nan,1,3,nan,nan,1693,0.85042101,-3.9584923,55.684814,274.34888,nan,361.089,-2.165,-7.93674,nan,nan
1980-04-04 10:13:41,1,2.41667,1.05,-0.2,0.117851,1,1,34123.2,26767.7,1693,0.85040689,-3.9586973,55.657471,274.34888,6.759,364.793,-2.01564,-11.1549,23.7346,21.0215
1980-04-04 10:15:02,1,1.62857,1.37143,-0.128571,0.478518,1,1,48386.2,43860.0,1693,0.85039747,-3.9588346,55.645752,274.34888,6.31228,366.495,-4.89121,-4.69964,28.263,26.9087
1980-04-04 10:17:44,1,2.84286,1.38571,0.671429,0.358569,1,1,55931.4,40102.2,1693,0.85038805,-3.958971,55.62207,274.34863,6.86147,366.555,-6.57198,-3.76814,30.3869,25.7301
1980-04-04 10:19:05,1,2.87143,1.62857,1.47143,0.312332,1,1,46793.5,34501.7,1693,0.85037863,-3.9591084,55.610352,274.34863,6.4804,365.209,-2.67966,-4.57935,27.794,23.8659
1980-04-04 10:23:08,-1,nan,nan,nan,nan,1,3,nan,nan,1693,0.8503598,-3.9593821,55.571045,274.34839,nan,365.663,-6.39566,-4.54097,nan,nan
1980-04-04 10:24:29,-1,nan,nan,nan,nan,1,4,nan,nan,1693,0.85035509,-3.9594507,55.559326,274.34839,nan,nan,nan,nan,nan,nan
1980-04-04 10:27:11,1,0.2,3.2,0.7,4.58597e-16,1,1,23926.2,29658.1,1693,0.85034096,-3.9596558,55.535889,274.34839,8.67378,360.134,-3.11323,-12.7607,19.8744,22.1274
1980-04-04 10:29:51,1,-0.685714,2.64286,0.757143,0.378504,1,1,40112.2,43711.4,1693,0.85033154,-3.9597931,55.508545,274.34839,7.70411,390.683,-67.1466,-15.1281,25.7333,26.863
1980-04-04 10:31:12,1,-0.942857,1.31429,-0.457143,0.590745,1,1,30133.7,25556.9,1693,0.85032213,-3.9599295,55.496582,274.34814,8.79483,358.023,-13.5226,-19.012,22.3041,20.5405
1980-04-04 10:32:33,1,-0.814286,1.11429,-0.571429,0.494459,1,1,39978.5,34596.0,1693,0.85031742,-3.9599981,55.484863,274.34814,8.26078,356.313,-10.0714,-18.5221,25.6904,23.8985
1980-04-04 10:33:56,1,-0.657143,1.42857,-0.114286,0.370328,1,1,31371.9,28198.6,1693,0.85031271,-3.9600668,55.473145,274.34814,8.1216,356.134,-11.8265,-18.9109,22.7577,21.576
1980-04-04 10:35:17,1,-0.6,1.25714,-0.342857,0.483187,1,1,28768.7,30738.7,1693,0.85030329,-3.9602041,55.461426,274.34814,8.57341,354.513,-6.60811,-19.9833,21.793,22.5268
1980-04-04 10:36:38,1,-0.366667,1.18333,0.0,0.153659,1,1,19616.8,25464.9,1693,0.85029858,-3.9602718,55.445801,274.34814,10.3832,351.904,-17.9053,-19.3165,17.9958,20.5035
1980-04-04 10:37:59,1,-0.414286,1.68571,-0.0285714,0.314286,1,1,17441.7,25359.4,1693,0.85029387,-3.9603405,55.434082,274.34814,9.76192,353.305,-6.40602,-20.6512,16.9689,20.461
1980-04-04 10:39:20,1,-0.1,1.8,-0.1,1.96262e-17,1,1,17588.6,24070.7,1693,0.85028446,-3.9604778,55.422119,274.3479,10.4957,352.558,-14.5539,-20.5508,17.0401,19.9344
1980-04-04 10:40:41,1,-0.0714286,2.21429,-0.1,0.221313,1,1,12539.7,23429.8,1693,0.85027975,-3.9605465,55.4104,274.3479,14.2213,355.02,-4.17471,-18.8174,14.3881,19.6672
1980-04-04 10:42:02,1,-0.142857,1.94286,-0.1,0.218529,1,1,33909.7,24669.3,1693,0.85027033,-3.9606829,55.398682,274.3479,9.13193,352.923,-8.42079,-17.5265,23.6603,20.1807
1980-04-04 10:46:05,1,0.957143,2.24286,0.914286,0.38226,1,1,25521.2,25574.7,1693,0.8502515,-3.9609566,55.359375,274.34766,10.9024,357.251,-4.77687,-14.5073,20.5262,20.5477
1980-04-04 10:48:47,1,1.51429,2.78571,1.34286,0.380655,1,1,28191.6,26661.4,1693,0.85024208,-3.9610939,55.335938,274.34766,8.94827,359.283,-1.95682,-12.6511,21.5734,20.9797
1980-04-04 10:50:08,1,1.55714,3.14286,1.4,0.271052,1,1,33530.5,26412.6,1693,0.85023266,-3.9612312,55.324219,274.34766,8.27872,358.823,-3.44092,-14.0707,23.5276,20.8816
1980-04-04 10:51:29,1,2.01429,2.94286,1.97143,0.316228,1,1,28974.6,25548.8,1693,0.85022795,-3.9612989,55.3125,274.34766,9.2015,361.472,-2.98312,-10.4844,21.8709,20.5373
1980-04-04 10:52:50,1,1.9,2.7,1.86667,0.149071,1,1,36429.8,27748.5,1693,0.85022324,-3.9613676,55.296875,274.34766,8.9193,359.888,-4.35056,-11.9533,24.5237,21.4031
1980-04-04 10:54:11,1,1.12857,2.6,2.27143,0.425705,1,1,28985.7,23815.6,1693,0.85021383,-3.9615049,55.284912,274.34741,10.5371,356.34,-2.77465,-9.10755,21.8751,19.8284
1980-04-04 10:55:32,1,1.15714,2.32857,1.51429,0.239046,1,1,39887.8,23109.3,1693,0.85020912,-3.9615736,55.273193,274.34741,9.54034,356.549,-5.51892,-15.1294,25.6613,19.5322
1980-04-04 10:56:53,1,0.8,2.16667,0.666667,0.176383,1,1,23668.1,23786.9,1693,0.85020441,-3.9616413,55.261475,274.34741,11.5566,356.274,-4.12033,-17.0063,19.767,19.8165
1980-04-04 10:58:14,1,1.55714,2.24286,1.8,0.271052,1,1,25057.1,21720.8,1693,0.85019499,-3.9617786,55.249756,274.34741,10.6039,356.194,-12.2869,-13.6003,20.3387,18.9363
1980-04-04 11:00:56,1,1.62857,2.41429,2.6,0.142857,1,1,34992.6,24069.6,1693,0.85018551,-3.961916,55.222412,274.34741,8.98606,357.258,-1.34763,-11.3644,24.0351,19.9339
1980-04-04 11:02:17,1,1.7,1.58571,2.08571,0.324509,1,1,26026.5,25402.8,1693,0.8501761,-3.9620523,55.210449,274.34717,11.5061,357.351,-5.93821,-13.0622,20.7284,20.4785
1980-04-04 11:03:38,1,1.65,1.2,2.48333,0.300925,1,1,22890.3,23629.7,1693,0.85017139,-3.962121,55.19873,274.34717,10.3891,357.113,-9.7665,-13.0511,19.4394,19.7509
1980-04-04 11:04:59,1,1.92857,1.38571,2.82857,0.292072,1,1,27499.5,22617.0,1693,0.85016668,-3.9621897,55.187012,274.34717,10.5543,357.673,-4.9035,-11.5853,21.3069,19.323
1980-04-04 11:06:20,1,1.52857,1.55714,2.31429,0.220389,1,1,20152.3,20648.9,1693,0.85015726,-3.962326,55.175293,274.34717,10.6445,358.108,-10.9033,-11.6246,18.2398,18.4632
1980-04-04 11:09:02,1,1.32857,1.3,2.1,0.353409,1,1,20673.3,20553.4,1693,0.85014313,-3.962532,55.147705,274.34692,10.9659,356.992,-11.4213,-13.4857,18.4741,18.4204
1980-04-04 11:10:23,1,1.4,1.17143,1.72857,0.412063,1,1,26259.7,24512.7,1693,0.85013843,-3.9626007,55.135986,274.34692,10.9305,358.005,-4.71514,-12.9625,20.821,20.1165
1980-04-04 11:11:44,1,1.44286,1.54286,1.45714,0.210926,1,1,24548.2,23675.9,1693,0.85013372,-3.9626684,55.124268,274.34692,9.8988,357.332,-10.6638,-13.9596,20.1311,19.7702
1980-04-04 11:13:05,1,0.742857,1.34286,0.3,0.458925,1,1,29358.6,25586.6,1693,0.85012424,-3.9628057,55.112549,274.34692,9.53117,354.7,-7.35751,-13.3622,22.0154,20.5525
1980-04-04 11:14:26,1,0.683333,0.3,-0.1,0.357849,1,1,23569.7,18630.5,1693,0.85011953,-3.9628744,55.10083,274.34692,12.2652,356.218,-14.8481,-14.7354,19.7258,17.5376
1980-04-04 11:15:47,1,0.114286,0.4,-0.242857,0.484873,1,1,35284.9,28026.8,1693,0.85011482,-3.9629431,55.089111,274.34692,9.58705,353.964,-4.27746,-16.2506,24.1353,21.5102
1980-04-04 11:17:08,1,0.328571,-0.257143,0.0,0.156492,1,1,24588.8,33195.0,1693,0.8501054,-3.9630795,55.073242,274.34668,8.39877,353.877,-7.42814,-22.0558,20.1477,23.4096
1980-04-04 11:18:29,1,-0.0428571,0.471429,0.0571429,0.188442,1,1,24431.3,29670.9,1693,0.8501007,-3.9631481,55.061523,274.34668,9.33422,355.896,-2.62802,-16.6506,20.0831,22.1321
1980-04-04 11:19:50,1,0.314286,0.328571,-0.0571429,0.261861,1,1,31656.4,20988.8,1693,0.85009599,-3.9632168,55.049805,274.34668,9.30122,354.526,-5.84534,-14.453,22.8606,18.6145
1980-04-04 11:23:51,-1,nan,nan,nan,nan,1,4,nan,nan,1693,0.85007715,-3.9634905,55.014404,274.34644,nan,nan,nan,nan,nan,nan
1980-04-04 11:25:12,-1,nan,nan,nan,nan,1,3,nan,nan,1693,0.85006768,-3.9636278,54.998779,274.34644,nan,352.489,-10.8473,-19.3609,nan,nan
1980-04-04 11:30:45,1,-0.6,-2.05,-0.05,0.574456,1,1,40603.3,29611.8,1693,0.85004413,-3.9639702,54.947998,274.34644,8.34504,351.618,-7.05447,-19.5425,25.8904,22.1101
1980-04-04 11:32:06,1,-0.0666667,-2.46667,-1.16667,0.258199,1,1,26491.6,37695.8,1693,0.85003471,-3.9641066,54.936035,274.34619,7.19229,355.436,-0.988021,-12.4375,20.9128,24.9462
1980-04-04 11:33:20,1,0.0833333,-1.83333,-0.7,0.216667,1,1,46958.0,29662.1,1693,0.85003,-3.9641752,54.924316,274.34619,8.61707,355.353,-5.32222,-21.268,27.8428,22.1288
1980-04-04 11:34:41,1,0.328571,-2.5,-0.7,0.439852,1,1,26369.4,32961.0,1693,0.8500253,-3.9642439,54.912598,274.34619,7.69487,355.851,3.62893,-9.61056,20.8645,23.3269
1980-04-04 11:36:02,1,0.833333,1.2,1.03333,0.290593,1,1,23440.8,25231.2,1693,0.85001588,-3.9643803,54.900879,274.34619,10.1076,355.737,-9.89749,-15.4045,19.6718,20.4092
1980-04-04 11:37:23,1,0.842857,1.17143,1.04286,0.294854,1,1,26770.6,24432.4,1693,0.85001111,-3.9644489,54.88916,274.34619,10.9648,354.861,-4.08175,-15.5888,21.0226,20.0836
1980-04-04 11:38:44,1,1.26667,1.25,1.06667,0.271314,1,1,26151.7,26000.8,1693,0.8500064,-3.9645176,54.877197,274.34595,9.97481,355.121,-9.18345,-15.6072,20.7782,20.7182
1980-04-04 11:40:05,1,0.6,0.985714,0.357143,0.308386,1,1,27700.2,22951.5,1693,0.84999698,-3.9646549,54.861572,274.34595,11.0112,355.673,-4.44831,-14.7872,21.3845,19.4654
1980-04-04 11:41:26,1,0.742857,1.1,0.528571,0.380118,1,1,25815.9,24232.5,1693,0.84999228,-3.9647226,54.849854,274.34595,10.5474,355.65,-10.1355,-14.5321,20.6443,20.0013
1980-04-04 11:42:47,1,0.428571,0.842857,0.528571,0.308386,1,1,30260.0,25936.7,1693,0.84998757,-3.9647913,54.838135,274.34595,11.0137,355.892,-5.24881,-15.2214,22.3508,20.6926
1980-04-04 11:44:08,1,0.5,0.728571,0.928571,0.247436,1,1,25727.4,23824.5,1693,0.84997815,-3.9649286,54.826416,274.34595,10.9591,355.721,-8.8268,-14.3615,20.6089,19.8321
1980-04-04 11:45:29,1,0.442857,0.528571,1.12857,0.330738,1,1,29191.7,25513.2,1693,0.84997344,-3.9649973,54.814697,274.34595,11.1038,355.129,-4.77322,-16.8263,21.9527,20.523
1980-04-04 11:46:50,1,0.75,0.866667,1.1,0.134371,1,1,25229.4,24477.8,1693,0.84996873,-3.965065,54.802734,274.3457,10.9984,355.598,-9.2131,-15.9126,20.4085,20.1022
1980-04-04 12:58:30,-1,nan,nan,nan,nan,1,3,nan,nan,1693,0.84962898,-3.9699955,54.140381,274.34351,nan,348.573,-1.0526,-13.6828,nan,nan
1980-04-04 12:59:51,1,1.15,1.45,1.55,0.210159,1,1,22262.1,23262.8,1693,0.84962428,-3.9700642,54.128662,274.34351,10.5695,351.33,-6.16573,-16.997,19.1708,19.597
1980-04-04 13:01:12,1,1.16667,1.38333,1.48333,0.187083,1,1,21721.1,20514.5,1693,0.8496148,-3.9702005,54.116699,274.34326,12.9191,350.618,-2.49258,-15.8689,18.9364,18.403
1980-04-04 13:02:33,1,0.883333,1.8,2.08333,0.340751,1,1,29995.1,25180.9,1693,0.84961009,-3.9702692,54.10498,274.34326,10.707,349.51,0.260626,-14.4837,22.2527,20.3889
1980-04-04 13:03:56,1,0.0714286,1.5,2.57143,0.318158,1,1,22488.2,21951.1,1693,0.84960538,-3.9703379,54.093262,274.34326,12.0518,344.159,-1.21683,-10.7273,19.268,19.0365
1980-04-04 13:05:17,1,0.0571429,1.01429,2.21429,0.260298,1,1,29592.6,30107.8,1693,0.8495959,-3.9704752,54.081543,274.34326,11.4653,346.547,-3.24888,-12.9285,22.1029,22.2945
1980-04-04 13:06:38,1,0.0333333,0.766667,2.26667,0.33665,1,1,21535.6,22846.0,1693,0.8495912,-3.9705439,54.065918,274.34326,13.4241,347.457,-1.43019,-14.4304,18.8554,19.4206
1980-04-04 13:09:18,1,-0.0428571,0.685714,2.05714,0.330121,1,1,21828.2,22708.9,1693,0.84960645,-3.8379169,53.956146,274.25693,12.9379,346.32,-1.61549,-13.4544,18.9831,19.3622
1980-04-04 13:10:39,-1,nan,nan,nan,nan,1,3,nan,nan,1693,0.84960008,-3.8380096,53.944366,274.25687,nan,347.047,-0.540683,-14.7401,nan,nan
1980-04-04 13:12:27,-1,nan,nan,nan,nan,1,4,nan,nan,1693,0.84956282,-3.9709549,54.014893,274.34302,nan,nan,nan,nan,nan,nan
1980-04-04 13:12:28,-1,nan,nan,nan,nan,1,3,nan,nan,1693,0.84956282,-3.9709549,54.014893,274.34302,nan,346.382,-1.36485,-13.4411,nan,nan
1980-04-04 13:13:21,-1,nan,nan,nan,nan,1,3,nan,nan,1693,0.84955812,-3.9710236,54.00708,274.34302,nan,345.907,-0.803923,-14.1583,nan,nan
1980-04-04 13:17:26,-1,nan,nan,nan,nan,1,3,nan,nan,1693,0.84953922,-3.9712973,53.967773,274.34277,nan,343.919,-0.0523189,-14.5735,nan,nan
1980-04-04 13:18:47,-1,nan,nan,nan,nan,1,3,nan,nan,1693,0.84953445,-3.9713659,53.956055,274.34277,nan,348.481,3.55834,-17.3442,nan,nan
1980-04-04 13:20:08,-1,nan,nan,nan,nan,1,3,nan,nan,1693,0.84952503,-3.9715033,53.944336,274.34277,nan,344.877,-0.511759,-14.7242,nan,nan
1980-04-04 13:21:29,1,0.371429,1.58571,1.9,0.221313,1,1,32861.7,28677.6,1693,0.84952033,-3.971571,53.932617,274.34277,10.7789,345.733,1.75271,-15.2773,23.2918,21.7585
1980-04-04 13:22:50,1,0.783333,1.45,1.7,0.342377,1,1,24153.2,24351.1,1693,0.84951556,-3.9716396,53.916992,274.34277,11.5786,347.045,0.0670499,-15.9643,19.9685,20.0501
1980-04-04 13:24:11,1,0.666667,2.13333,2.03333,0.282843,1,1,31102.9,27550.7,1693,0.84950614,-3.971777,53.905029,274.34253,11.1069,346.585,4.04528,-17.3753,22.6599,21.3267
1980-04-04 13:27:54,1,0.966667,2.26667,2.11667,0.292973,1,1,27056.9,25708.1,1693,0.84949195,-3.971983,53.869873,274.34253,10.7076,349.482,5.96438,-18.0545,21.1347,20.6012
1980-04-04 13:30:36,1,0.157143,1.35714,2.64286,0.39123,1,1,26310.3,23704.0,1693,0.84947777,-3.972188,53.846436,274.34253,10.9529,350.514,6.61025,-19.1585,20.8411,19.7819
1980-04-04 13:32:17,1,0.414286,1.82857,2.41429,0.305059,1,1,19247.0,18610.5,1693,0.84946829,-3.9723253,53.830566,274.34229,13.6399,352.573,10.033,-20.6619,17.8254,17.5282
1980-04-04 13:33:38,1,0.385714,1.62857,2.58571,0.30034,1,1,22793.1,21278.1,1693,0.84946358,-3.972394,53.818848,274.34229,13.567,353.406,2.85269,-22.2357,19.3981,18.7424
1980-04-04 13:34:59,1,0.528571,2.0,2.18571,0.293466,1,1,20542.7,18938.3,1693,0.84945887,-3.9724617,53.807129,274.34229,13.103,351.874,10.3517,-21.7243,18.4156,17.6819